Miscellaneous Local Product
Issued by NWS Hastings, NE

Home | Current Version | Previous Version | Graphics & Text | Print | Product List | Glossary On
Versions: 1 2 3 4 5 6 7 8 9 10 11 12 13 14 15 16 17 18 19 20 21 22 23 24 25 26 27 28 29 30 31 32 33 34 35 36 37 38 39 40 41 42 43 44 45 46 47 48 49 50
000
AXUS43 KGID 281202
MISGRI

GID CWA HOURLY WEATHER ROUNDUP
NATIONAL WEATHER SERVICE HASTINGS NE
700 AM CDT SAT MAR 28 2015

NOTE: "FAIR" INDICATES FEW OR NO CLOUDS BELOW 12,000 FEET WITH NO
SIGNIFICANT WEATHER AND/OR OBSTRUCTIONS TO VISIBILITY.

...SOUTH CENTRAL NEBRASKA...

CITY           SKY/WX    TMP DP  RH WIND       PRES   REMARKS
GRAND ISLAND   CLEAR     29  25  85 SE8       30.04R WCI  21
HASTINGS       PTCLDY    29  22  75 E6        30.02R WCI  23
KEARNEY        CLEAR     23  19  86 E5        30.01R WCI  17
ORD            CLEAR     22  19  89 CALM      30.02R
YORK           MOCLDY    32  27  80 E8        30.06R WCI  25
AURORA         CLEAR     30  27  89 E7        30.05R WCI  23
LEXINGTON      CLEAR     29  26  88 S3        30.00R
HOLDREGE       CLEAR     29  24  81 E6        29.99S WCI  23
HEBRON         CLEAR     31  24  73 E3        30.05R

...NEBRASKA PANHANDLE...

CITY           SKY/WX    TMP DP  RH WIND       PRES   REMARKS
CHADRON        CLEAR     32  28  85 SW5       29.95S WCI  27
ALLIANCE       CLEAR     30  25  81 CALM      29.97S
SCOTTSBLUFF    CLEAR     32  26  78 W6        29.99S WCI  26
SIDNEY         CLEAR     38  27  64 W13       30.00S WCI  30

...WESTERN AND NORTH CENTRAL NEBRASKA...

CITY           SKY/WX    TMP DP  RH WIND       PRES   REMARKS
VALENTINE      CLEAR     27  24  89 W3        29.98R
AINSWORTH      CLEAR     29  27  94 E5        29.98S WCI  24
ONEILL         CLEAR     30  27  90 SE5       30.02R WCI  25
BROKEN BOW     CLEAR     26  25  96 CALM      29.98R
IMPERIAL         N/A     35  28  75 N3        29.99R
NORTH PLATTE   CLEAR     27  25  92 CALM      30.00R
MCCOOK         CLEAR     35  31  85 W9        29.97R WCI  28

...EASTERN NEBRASKA...

CITY           SKY/WX    TMP DP  RH WIND       PRES   REMARKS
NORFOLK        CLEAR     28  22  78 SE8       30.07R WCI  20
SO SIOUX CITY  CLOUDY    32  26  78 SE10      30.12R WCI  24
TEKAMAH        PTCLDY    30  24  78 SE7       30.13R WCI  23
COLUMBUS       CLEAR     30  19  64 E6        30.09R WCI  24
ALBION         CLEAR     27  23  85 SE5       30.05S WCI  22
OMAHA EPPLEY   MOCLDY    34  26  72 SE12      30.13R WCI  25
OFFUTT AFB     PTCLDY    32  26  80 E7        30.12R WCI  25
MILLARD        CLEAR     33  27  78 E7        30.12R WCI  26
LINCOLN        PTCLDY    32  24  72 SE7       30.11R WCI  26
NEBRASKA CITY  CLEAR     31  26  84 E6        30.11R WCI  25
BEATRICE       MOCLDY    33  26  75 E6        30.08R WCI  27
FALLS CITY     MOCLDY    34  27  75 E13       30.11R WCI  25

...NORTHERN KANSAS...

CITY           SKY/WX    TMP DP  RH WIND       PRES   REMARKS
GOODLAND       CLEAR     40  33  76 W6        30.01R
HILL CITY      CLEAR     33  29  85 E6        29.98R WCI  28
NORTON         SUNNY     34  28  80 N5        29.98R WCI  30
PHILLIPSBURG   CLEAR     36  28  75 N7        30.00R WCI  30
SMITH CENTER   CLEAR     32  28  86 NE9       30.00R WCI  24
BELOIT         CLEAR     30  25  80 NE6       30.01R WCI  24
HAYS           CLEAR     36  27  69 CALM      29.96R
RUSSELL        CLEAR     31  29  92 NE7       29.96R WCI  24
CONCORDIA      CLEAR     30  23  75 E6        30.02R WCI  24
SALINA         CLEAR     39  30  70 CALM      30.01R
TOPEKA         CLOUDY    39  26  59 E12       30.11R WCI  32



USA.gov is the U.S. government's official web portal to all federal, state and local government web resources and services.